Weather reports worldwide

Advertisment
Larissa, Greece (16648): temperature & dewpoint: 12.01.2021 08:00:00 - 18.01.2021 08:00:00 (EET)Larissa, Greece (16648): wind speed: 12.01.2021 08:00:00 - 18.01.2021 08:00:00 (EET)Larissa, Greece (16648): wind direction: 12.01.2021 08:00:00 - 18.01.2021 08:00:00 (EET)Larissa, Greece (16648): reduced air pressure: 12.01.2021 08:00:00 - 18.01.2021 08:00:00 (EET)Larissa, Greece (16648): visibility: 12.01.2021 08:00:00 - 18.01.2021 08:00:00 (EET)
Date & Time tt [°C] td [°C] ff [km/h] ff [kn] dd ppp [hPa] vv [km]
18.01.2021 08:00:00 -0,4 -7,1 18 10 NNE 1020,6 10
18.01.2021 07:00:00 0,0 -7,0 15 8 NNE - 10
18.01.2021 06:00:00 0,0 -7,0 18 10 WNW - 10
18.01.2021 05:00:00 -1,2 -4,0 0 0 N 1019,5 10
18.01.2021 04:00:00 - - - - - - -
18.01.2021 03:00:00 -1,0 -4,0 0 0 N - 10
18.01.2021 02:00:00 -1,0 -3,9 0 0 N 1019,2 10
18.01.2021 01:00:00 -1,0 -3,0 0 0 N - 10
18.01.2021 00:00:00 -1,0 -4,0 0 0 N - 10
17.01.2021 23:00:00 -1,0 -3,9 0 0 N 1018,0 10
17.01.2021 22:00:00 -1,0 -9,0 0 0 N - 10
17.01.2021 21:00:00 -1,0 -8,0 0 0 N - 10
17.01.2021 20:00:00 -0,6 -4,5 0 0 N 1017,7 10
17.01.2021 19:00:00 0,0 -7,0 0 0 N - 10
17.01.2021 18:00:00 1,0 -7,0 0 0 N - 10
17.01.2021 17:00:00 1,2 -6,4 8 4 SSW 1017,1 10
17.01.2021 16:00:00 2,0 -8,0 9 5 SSW - 10
17.01.2021 15:00:00 2,0 -8,0 9 5 SSW - 10
17.01.2021 14:00:00 1,8 -8,3 9 5 SSW 1017,0 10
17.01.2021 13:00:00 2,0 -7,0 8 4 SW - 10
17.01.2021 12:00:00 1,0 -9,0 0 0 N - 10
17.01.2021 11:00:00 0,6 -8,6 8 4 W 1018,4 10
17.01.2021 10:00:00 -1,0 -8,0 8 4 W - 10
17.01.2021 09:00:00 -3,0 -9,0 8 4 W - 10
17.01.2021 08:00:00 -4,6 -9,6 0 0 N 1017,6 10
17.01.2021 07:00:00 -5,0 -10,0 8 4 WNW - 10
17.01.2021 06:00:00 -5,0 -9,0 0 0 N - 10
17.01.2021 05:00:00 -3,6 -9,4 8 4 WNW 1016,3 10
17.01.2021 04:00:00 -4,0 -8,0 8 4 W - 10
17.01.2021 03:00:00 -3,0 -9,0 11 6 WNW - 10
17.01.2021 02:00:00 -2,6 -8,8 8 4 WNW 1015,6 10
17.01.2021 01:00:00 -3,0 -7,0 9 5 WNW - 10
17.01.2021 00:00:00 -2,0 -6,0 9 5 WNW - 10
16.01.2021 23:00:00 -0,8 -10,4 9 5 WNW 1015,2 10
16.01.2021 22:00:00 0,0 -3,0 9 5 WNW - 10
16.01.2021 21:00:00 1,0 -3,0 13 7 W - 6
16.01.2021 20:00:00 1,0 -4,3 8 4 N 1014,2 6
16.01.2021 19:00:00 - - 8 4 NNW - 6
16.01.2021 18:00:00 1,0 -4,0 15 8 N - 6
16.01.2021 17:00:00 1,0 -3,0 11 6 N 1012,6 6
16.01.2021 16:00:00 1,0 -3,0 13 7 NNW - 6
16.01.2021 15:00:00 2,0 -3,0 21 11 N - 6
16.01.2021 14:00:00 1,4 -2,5 16 9 NNE 1011,9 7
16.01.2021 13:00:00 2,0 -3,0 16 9 N - 7
16.01.2021 12:00:00 1,0 -1,0 13 7 NNW - 6
16.01.2021 11:00:00 1,2 -0,8 11 6 NNW 1013,0 6
16.01.2021 10:00:00 1,0 -1,0 13 7 NW - 6
16.01.2021 09:00:00 1,0 0,0 8 4 WNW - 6
16.01.2021 08:00:00 0,2 0,0 0 0 N 1012,4 6
16.01.2021 07:00:00 0,0 0,0 0 0 N - 4,0
16.01.2021 06:00:00 0,0 0,0 0 0 N - 1,0
16.01.2021 05:00:00 0,0 -0,2 8 4 NW 1013,1 1,0
16.01.2021 04:00:00 0,0 0,0 0 0 N - 2,0
16.01.2021 03:00:00 1,0 0,0 0 0 N - 6
16.01.2021 02:00:00 2,8 0,2 0 0 N 1013,8 8
16.01.2021 01:00:00 3,0 0,0 0 0 N - 10
16.01.2021 00:00:00 3,0 -1,0 8 4 SSW - 10
15.01.2021 23:00:00 4,2 -1,1 0 0 N 1015,3 10
15.01.2021 22:00:00 4,0 -1,0 0 0 N - 10
15.01.2021 21:00:00 4,0 -2,0 0 0 N - 10
15.01.2021 20:00:00 3,8 -1,3 0 0 N 1015,6 10
15.01.2021 19:00:00 4,0 -1,0 9 5 E - 10
15.01.2021 18:00:00 4,0 -2,0 11 6 E - 10
15.01.2021 17:00:00 6,2 -4,4 0 0 N 1015,1 10
15.01.2021 16:00:00 7,0 -6,0 0 0 N - 10
15.01.2021 15:00:00 8,0 -5,0 0 0 N - 10
15.01.2021 14:00:00 7,2 -5,1 0 0 N 1015,6 10
15.01.2021 13:00:00 7,0 -6,0 11 6 N - 10
15.01.2021 12:00:00 6,0 -6,0 13 7 N - 10
15.01.2021 11:00:00 5,4 -7,2 13 7 NNE 1017,3 10
15.01.2021 10:00:00 5,0 -6,0 11 6 N - 10
15.01.2021 09:00:00 3,0 -4,0 13 7 NNW - 10
15.01.2021 08:00:00 1,2 -3,9 8 4 NW 1015,8 10
15.01.2021 07:00:00 3,0 -2,0 13 7 WNW - 10
15.01.2021 06:00:00 3,0 -1,0 9 5 WNW - 10
15.01.2021 05:00:00 3,4 -1,2 11 6 NW 1013,9 10
15.01.2021 04:00:00 4,0 -2,0 24 13 N - 10
15.01.2021 03:00:00 4,0 -2,0 18 10 N - 10
15.01.2021 02:00:00 3,8 -1,9 26 14 N 1011,4 10
15.01.2021 01:00:00 3,0 -2,0 37 20 NNE - 10
15.01.2021 00:00:00 5,0 -1,0 39 21 NNE - 10
14.01.2021 23:00:00 6,4 -0,3 26 14 N 1007,8 10
14.01.2021 22:00:00 6,0 3,0 8 4 NW - 10
14.01.2021 21:00:00 6,0 3,0 0 0 N - 10
14.01.2021 20:00:00 6,4 3,0 9 5 ESE 1007,8 10
14.01.2021 19:00:00 7,0 3,0 0 0 N - 10
14.01.2021 18:00:00 7,0 3,0 0 0 N - 10
14.01.2021 17:00:00 8,4 0,8 0 0 N 1009,0 10
14.01.2021 16:00:00 9,0 -1,0 0 0 N - 10
14.01.2021 15:00:00 9,0 -1,0 0 0 N - 10
14.01.2021 14:00:00 9,6 -1,2 0 0 N 1010,2 10
14.01.2021 13:00:00 8,0 -2,0 11 6 SW - 10
14.01.2021 12:00:00 7,0 -1,0 9 5 SE - 10
14.01.2021 11:00:00 6,8 -1,9 0 0 N 1013,2 10
14.01.2021 10:00:00 5,0 -2,0 8 4 WNW - 10
14.01.2021 09:00:00 4,0 -2,0 9 5 NW - 10
14.01.2021 08:00:00 2,0 -2,7 9 5 WNW 1012,8 10
14.01.2021 07:00:00 3,0 1,0 15 8 W - 10
14.01.2021 06:00:00 4,0 1,0 11 6 WNW - 10
14.01.2021 05:00:00 4,6 0,3 11 6 WNW 1011,6 10
14.01.2021 04:00:00 5,0 1,0 15 8 WNW - 10
14.01.2021 03:00:00 5,0 1,0 11 6 NW - 10
14.01.2021 02:00:00 6,4 1,3 11 6 NNW 1010,4 10
14.01.2021 01:00:00 7,0 1,0 11 6 NNW - 10
14.01.2021 00:00:00 7,0 2,0 11 6 W - 10
13.01.2021 23:00:00 7,0 1,9 0 0 N 1010,0 10
13.01.2021 22:00:00 6,0 4,0 0 0 N - 10
13.01.2021 21:00:00 7,0 3,0 0 0 N - 10
13.01.2021 20:00:00 6,8 3,4 0 0 N 1009,5 10
13.01.2021 19:00:00 7,0 3,0 8 4 NE - 10
13.01.2021 18:00:00 8,0 3,0 15 8 E - 10
13.01.2021 17:00:00 9,4 4,2 15 8 E 1008,0 10
13.01.2021 16:00:00 11,0 6,0 15 8 E - 10
13.01.2021 15:00:00 12,0 7,0 0 0 N - 10
13.01.2021 14:00:00 11,6 5,5 0 0 N 1007,5 10
13.01.2021 13:00:00 12,0 5,0 0 0 N - 10
13.01.2021 12:00:00 10,0 5,0 0 0 N - 10
13.01.2021 11:00:00 6,8 5,2 0 0 N 1009,1 10
13.01.2021 10:00:00 6,0 5,0 0 0 N - 10
13.01.2021 09:00:00 2,0 2,0 0 0 N - 10
13.01.2021 08:00:00 1,4 1,2 0 0 N 1008,1 10
13.01.2021 07:00:00 1,0 1,0 0 0 N - 10
13.01.2021 06:00:00 1,0 1,0 0 0 N - 10
13.01.2021 05:00:00 3,0 2,6 0 0 N 1007,5 10
13.01.2021 04:00:00 3,0 3,0 0 0 N - 10
13.01.2021 03:00:00 3,0 3,0 0 0 N - 10
13.01.2021 02:00:00 4,2 3,8 0 0 N 1007,0 10
13.01.2021 01:00:00 5,0 4,0 8 4 SSE - 10
13.01.2021 00:00:00 5,0 5,0 0 0 N - 10
12.01.2021 23:00:00 5,6 4,9 0 0 N 1007,2 10
12.01.2021 22:00:00 6,0 5,0 0 0 N - 10
12.01.2021 21:00:00 8,0 7,0 0 0 N - 10
12.01.2021 20:00:00 8,8 7,7 0 0 N 1006,3 10
12.01.2021 19:00:00 10,0 9,0 9 5 E - 10
12.01.2021 18:00:00 12,0 10,0 9 5 NNE - 10
12.01.2021 17:00:00 14,0 11,5 0 0 N 1004,4 10
12.01.2021 16:00:00 16,0 12,0 0 0 N - 10
12.01.2021 15:00:00 16,0 12,0 0 0 N - 10
12.01.2021 14:00:00 16,0 11,5 0 0 N 1005,4 10
12.01.2021 13:00:00 14,0 12,0 0 0 N - 10
12.01.2021 12:00:00 12,0 12,0 0 0 N - 8
12.01.2021 11:00:00 11,6 11,2 0 0 N 1008,3 8
12.01.2021 10:00:00 12,0 11,0 11 6 N - 6
12.01.2021 09:00:00 12,0 11,0 11 6 WNW - 8
12.01.2021 08:00:00 11,8 11,2 11 6 E 1007,6 6

tt = temperature
td = dewpoint
ff = wind speed
dd = wind direction
ppp = reduced air pressure
vv = visibility

Next stations